User: anonymous   Login
Location: ?????
(33.6267°N, 35.4675°E)
Time: 14:21:56
(UTC+00:00)
Language:

Cosmos 1151 Rocket - Orbit

View from above orbital plane
View from above orbital plane
View from above satellite
View from above satellite

Ground track
Ground track

The orbit data is extracted from the following two-line orbital elements,

1 11672U 80005B   20018.16366064  .00000060  00000-0  38212-5 0  9990
2 11672  82.5154 267.3575 0018111  62.3154 297.9898 14.87982905163917
Epoch (UTC): 18 January 2020 03:55:40
Eccentricity: 0.0018111
inclination: 82.5154°
perigee height: 591 km
apogee height: 617 km
right ascension of ascending node: 267.3575°
argument of perigee: 62.3154°
revolutions per day: 14.87982905
mean anomaly at epoch: 297.9898°
orbit number at epoch: 16391

The dashed part of the orbit path shows where the satellite is in the earth's shadow,  

DLR